Temperature
7 5 5 5 6 7 6 6 6 6 6 6 5 4 4 4 4 4 4 4 4 5 5 6 6 6 6 6 6 6 6 6 6 6 6 6 6 6 6 6 6 6 7 7
5 5 5 6 6 6 6 6 5 5 6 5 4 4 4 3 3 4 3 3 4 4 4 5 5 5 5 6 5 5 6 5 6 6 6 6 6 6 6 6 6 6 6 6
5 5 6 6 6 6 6 5 5 5 4 4 4 3 3 3 3 3 3 3 3 3 4 4 4 4 5 5 5 5 5 5 5 5 5 5 5 5 5 5 5 5 5 5
4 5 5 5 5 5 5 5 5 4 4 3 3 3 3 2 2 2 2 2 2 3 3 3 4 4 4 4 4 4 4 4 4 4 4 5 5 5 5 5 5 5 5 5
4 4 4 5 5 5 4 4 4 4 3 2 2 2 2 2 2 2 1 1 2 2 2 3 3 3 4 4 4 4 4 4 4 4 4 4 4 4 4 4 4 4 4 4
3 4 4 4 4 4 4 3 3 2 2 2 2 2 2 1 2 2 1 1 1 1 2 2 2 3 3 3 3 3 3 3 3 3 3 3 3 3 3 3 3 4 4 4
3 3 3 3 3 3 3 2 2 2 2 2 2 1 2 1 1 1 0 1 1 1 1 1 2 2 2 2 2 3 3 3 3 3 2 3 3 3 3 3 3 3 3 3
2 3 2 2 3 2 2 2 2 3 2 2 1 1 1 0 0 0 0 0 0 0 0 1 1 1 1 2 2 2 2 2 2 2 2 2 2 2 2 2 2 2 2 2
2 2 2 2 2 2 2 1 2 1 0 0 1 0 0 -0 -1 -1 -1 -1 -0 -0 -0 0 0 0 1 1 1 1 1 1 1 1 1 1 1 1 2 1 1 1 2 2
1 1 1 1 2 2 2 1 -0 1 1 1 1 0 1 0 -1 -2 -2 -2 -1 -1 -1 -1 -0 -0 -0 0 0 0 0 1 1 1 1 1 1 1 1 1 1 1 1 1
-0 -0 -0 -0 -0 0 0 0 -0 -1 -0 0 0 1 -0 -1 -1 -2 -2 -2 -2 -1 -1 -1 -1 -1 -1 -1 -0 -0 -0 -0 -0 -0 -0 -0 -0 0 0 0 0 0 0 0
-1 -2 -1 -1 -1 -1 -1 -1 -1 -0 -1 -2 -1 -0 -1 -2 -2 -2 -2 -2 -2 -2 -2 -2 -2 -1 -1 -1 -1 -1 -1 -1 -1 -1 -1 -1 -1 -1 -1 -1 -1 -0 -0 -0
-2 -2 -1 -0 -1 -2 -2 -2 -2 -2 -2 -3 -1 -1 -2 -3 -3 -2 -2 -2 -2 -2 -2 -2 -2 -2 -2 -2 -2 -2 -2 -2 -2 -1 -1 -1 -1 -1 -1 -1 -1 -1 -1 -1
-1 -3 -2 -0 -0 -2 -3 -3 -3 -3 -2 -3 -3 -2 -2 -3 -3 -3 -3 -2 -3 -3 -3 -3 -3 -3 -3 -3 -3 -3 -3 -3 -2 -2 -2 -2 -2 -2 -2 -2 -2 -2 -2 -1
-2 -3 -4 -3 -3 -3 -3 -3 -4 -4 -3 -2 -2 -3 -2 -3 -3 -3 -3 -3 -3 -3 -3 -4 -4 -4 -4 -3 -3 -3 -3 -3 -3 -3 -3 -3 -3 -2 -2 -2 -2 -2 -2 -2
-4 -3 -4 -4 -3 -3 -3 -3 -4 -4 -4 -4 -3 -3 -3 -3 -3 -4 -4 -4 -4 -4 -4 -4 -4 -4 -4 -4 -4 -4 -4 -4 -4 -4 -4 -3 -3 -3 -3 -3 -3 -2 -3 -3
-5 -4 -4 -4 -4 -3 -3 -4 -4 -5 -5 -5 -4 -3 -5 -5 -5 -5 -4 -4 -4 -4 -4 -4 -4 -5 -5 -5 -5 -5 -5 -5 -5 -5 -4 -4 -4 -4 -4 -4 -3 -3 -3 -3
-5 -5 -5 -5 -4 -3 -2 -5 -5 -5 -6 -6 -5 -5 -6 -5 -4 -4 -4 -4 -4 -4 -5 -5 -5 -5 -5 -5 -5 -5 -5 -5 -5 -5 -5 -5 -5 -5 -5 -4 -4 -4 -4 -4
-5 -5 -5 -5 -5 -4 -4 -5 -6 -6 -5 -6 -6 -6 -6 -5 -5 -5 -4 -5 -5 -5 -5 -5 -5 -5 -6 -6 -6 -6 -6 -6 -6 -6 -6 -6 -6 -6 -5 -5 -5 -5 -5 -5
-6 -6 -6 -6 -4 -4 -3 -5 -6 -5 -5 -6 -6 -7 -7 -7 -6 -6 -5 -5 -5 -5 -6 -6 -6 -6 -6 -6 -6 -6 -6 -6 -6 -6 -6 -6 -6 -6 -6 -6 -6 -6 -6 -6
-6 -6 -6 -6 -5 -5 -5 -6 -5 -4 -4 -5 -6 -6 -7 -7 -6 -5 -5 -6 -6 -6 -6 -6 -6 -7 -7 -7 -7 -7 -7 -7 -7 -7 -7 -7 -7 -7 -7 -7 -7 -7 -7 -7
-6 -7 -7 -7 -6 -5 -6 -7 -6 -5 -5 -5 -5 -5 -6 -6 -6 -6 -6 -6 -6 -7 -7 -7 -7 -7 -7 -7 -7 -7 -7 -8 -8 -8 -8 -8 -8 -8 -8 -8 -8 -8 -8 -8
-8 -7 -7 -6 -5 -6 -6 -6 -5 -5 -5 -5 -5 -5 -6 -6 -6 -7 -7 -7 -7 -7 -7 -7 -8 -8 -8 -8 -8 -8 -8 -8 -8 -8 -8 -8 -8 -8 -8 -8 -8 -8 -8 -9
-9 -9 -8 -8 -8 -7 -6 -6 -5 -5 -6 -5 -6 -6 -6 -7 -7 -7 -7 -8 -8 -8 -8 -8 -8 -8 -8 -8 -8 -9 -9 -9 -9 -9 -9 -9 -9 -9 -9 -9 -9 -9 -9 -9
-8 -10 -9 -8 -9 -8 -6 -6 -6 -6 -6 -6 -6 -7 -7 -7 -7 -8 -8 -8 -8 -9 -9 -9 -9 -9 -9 -9 -9 -9 -9 -9 -9 -9 -9 -9 -9 -9 -9 -9 -9 -10 -10 -10
-10 -9 -9 -7 -7 -8 -7 -6 -6 -7 -7 -7 -7 -7 -7 -8 -8 -8 -8 -9 -9 -9 -9 -9 -9 -9 -9 -9 -9 -9 -10 -10 -10 -10 -10 -10 -10 -10 -10 -10 -10 -10 -10 -10
Wind_Speed
2 3 3 5 6 4 4 4 5 5 2 2 5 6 5 4 2 3 3 3 2 3 2 1 1 2 3 3 2 2 3 3 4 3 3 3 2 2 1 2 3 3 3 4
3 2 5 3 2 3 3 4 4 4 2 2 3 5 5 4 4 3 4 4 3 2 1 1 1 2 2 2 1 1 2 2 3 3 3 2 3 2 1 1 2 2 2 3
5 3 2 1 2 3 5 6 6 4 3 1 1 5 4 3 2 1 2 2 2 3 2 1 0 1 2 2 1 1 1 1 2 3 3 2 2 2 1 1 1 1 2 3
2 3 1 1 2 3 7 4 3 3 1 3 2 4 6 4 4 3 3 2 2 2 1 1 0 1 1 0 1 1 1 2 2 3 3 4 3 2 2 2 2 1 2 2
2 1 0 2 3 3 4 2 2 3 3 1 1 3 6 2 4 6 4 3 2 1 1 1 1 1 0 1 1 1 2 2 2 2 2 3 2 2 1 1 2 1 1 1
2 1 0 1 2 1 0 2 2 3 2 4 5 5 6 3 5 4 2 2 2 1 0 0 1 2 2 2 2 2 2 1 1 2 1 2 2 2 2 2 2 2 1 1
4 3 2 1 2 2 3 3 2 3 1 6 3 4 7 4 3 2 2 2 1 1 0 1 1 2 2 2 2 2 1 1 1 1 0 0 1 2 3 3 3 2 2 2
1 4 2 1 2 2 2 4 5 4 5 4 2 6 5 2 1 1 0 1 1 1 0 1 1 1 1 1 1 2 2 1 0 0 1 1 1 1 2 2 2 3 3 3
3 4 2 1 1 2 2 3 3 3 0 2 5 5 5 0 2 2 2 2 1 1 1 0 0 1 1 1 1 1 1 2 1 1 1 1 1 1 1 2 2 2 2 2
4 3 4 3 1 2 1 3 3 3 3 4 5 5 4 4 3 2 2 2 2 2 1 1 0 1 1 1 1 2 1 1 2 2 1 1 1 1 1 1 2 2 2 2
2 2 3 2 2 3 1 2 2 3 3 4 4 6 3 4 4 4 3 2 2 1 1 1 1 1 1 2 2 2 2 2 2 2 2 2 2 2 1 2 2 2 2 2
2 3 3 5 2 1 2 4 4 4 4 4 3 6 2 2 1 2 2 2 2 2 1 1 1 1 2 2 2 2 2 2 2 2 1 2 2 2 2 2 3 2 2 2
4 4 1 5 2 2 1 2 2 3 3 4 4 6 1 1 2 1 1 2 2 1 1 1 1 1 1 2 2 2 2 2 2 2 1 1 2 2 2 2 3 3 2 2
4 4 5 7 6 3 3 3 3 4 4 5 8 8 6 3 4 4 3 2 2 1 1 0 1 1 2 2 2 2 3 3 3 2 2 2 3 3 2 2 2 3 2 2
3 3 4 5 5 3 4 5 5 7 7 8 8 8 9 5 5 4 3 2 1 1 1 1 1 2 2 2 2 2 3 3 3 2 2 3 3 3 2 2 2 2 2 2
2 2 1 4 3 3 4 6 7 8 6 8 8 10 7 4 2 2 2 2 2 3 3 3 2 2 2 3 3 3 3 3 2 2 3 3 3 3 3 2 2 2 2 2
2 3 2 4 4 3 6 7 8 5 5 6 10 9 3 3 3 4 3 3 3 3 3 3 3 3 3 3 3 2 3 3 2 2 3 3 3 3 3 3 2 3 3 2
5 4 2 1 2 5 7 2 5 6 6 6 6 5 4 5 5 4 2 3 4 4 4 4 3 3 3 2 2 2 2 2 2 2 3 3 3 3 3 3 3 3 3 3
4 5 3 2 3 7 6 3 4 5 6 5 7 6 4 2 2 3 2 2 3 3 3 3 2 2 2 2 2 2 2 2 2 3 3 3 3 3 3 3 3 3 3 3
2 3 4 3 3 6 6 2 2 3 5 4 5 6 3 1 2 4 2 2 3 2 2 1 1 1 1 2 1 1 2 2 3 4 4 3 3 3 3 3 3 3 3 3
2 2 4 5 6 7 5 2 3 4 6 2 4 5 4 5 5 4 3 3 2 2 2 1 1 1 2 2 1 1 2 3 4 4 4 3 3 3 3 3 3 2 2 2
6 5 5 4 5 8 3 4 6 6 1 1 3 3 4 4 3 3 2 2 2 2 2 1 1 2 2 1 1 2 3 4 3 3 3 3 3 3 3 2 2 2 2 2
6 7 5 8 7 3 4 5 3 1 2 3 3 3 3 3 4 3 3 2 2 2 2 1 1 2 3 2 1 1 3 3 3 3 3 4 4 3 3 3 2 2 1 1
4 2 3 4 6 5 4 3 2 2 3 3 3 3 3 4 4 3 3 2 2 2 2 1 1 1 3 3 3 2 3 3 2 3 3 3 3 3 3 2 2 2 1 2
4 3 3 5 6 5 4 4 4 3 3 3 3 3 4 4 4 3 3 3 2 2 2 1 1 2 3 3 3 3 3 2 2 3 3 3 3 3 3 3 2 3 2 3
4 5 6 7 5 4 5 3 2 3 3 3 3 2 2 3 4 3 3 2 2 2 1 2 2 2 2 2 3 3 3 2 2 2 3 2 2 2 2 3 3 5 5 7
Wind_Direction
71 87 199 219 214 211 201 211 242 251 244 198 225 250 267 263 228 220 220 221 231 246 270 25 55 72 79 68 82 113 134 145 141 145 152 156 162 159 130 115 130 133 133 139
62 242 242 237 229 220 221 234 253 283 305 233 255 273 269 244 230 223 214 222 231 247 334 31 57 71 79 85 80 103 120 144 151 156 158 167 162 169 162 122 124 145 153 154
184 236 249 204 215 224 235 223 236 256 323 343 318 296 277 267 238 252 231 223 226 207 210 212 72 69 80 74 90 119 119 133 133 123 118 109 90 84 104 157 172 185 189 171
224 285 290 193 222 209 246 231 235 233 214 265 194 268 270 257 267 266 267 257 246 241 219 206 137 63 74 57 60 70 82 88 97 116 135 147 158 179 197 193 205 212 196 174
265 289 276 226 248 218 236 274 234 207 178 269 253 220 278 279 261 264 255 251 258 245 211 210 195 183 117 43 56 69 77 72 78 92 135 157 169 185 168 169 180 194 217 198
274 305 282 251 300 246 268 29 41 60 99 253 227 196 270 243 244 267 274 268 267 287 308 58 59 61 37 30 46 54 75 67 67 84 112 146 175 177 165 177 194 205 220 230
325 313 334 11 28 11 55 81 21 341 284 247 214 202 247 257 261 218 219 265 278 285 37 96 79 60 46 36 28 32 65 41 35 57 87 181 211 197 196 201 206 210 217 236
263 284 280 333 184 208 216 154 171 217 237 271 261 229 245 266 332 87 140 288 353 347 343 150 156 133 102 47 28 25 23 356 355 341 278 286 269 223 224 220 221 221 225 236
194 255 324 336 329 157 168 204 186 152 204 265 262 278 294 239 6 9 6 10 341 323 311 289 79 93 86 44 2 4 1 347 315 279 274 270 283 284 274 269 247 248 247 245
172 248 293 313 9 1 158 156 113 147 197 254 275 260 250 246 253 276 301 311 310 332 339 339 329 359 30 32 9 13 9 336 332 325 293 294 273 278 281 280 259 259 264 255
119 180 305 350 195 216 137 157 152 170 186 191 261 268 236 213 220 224 247 261 268 269 271 278 305 340 14 34 37 22 3 352 333 318 317 318 292 288 288 286 278 266 267 264
128 134 250 257 257 267 192 192 167 185 234 203 220 266 294 216 236 208 242 266 279 276 289 326 24 35 27 19 10 357 343 332 314 303 308 313 318 307 291 285 289 276 271 268
134 118 360 335 336 350 281 235 194 169 158 189 210 258 297 26 350 329 282 285 302 318 346 16 29 27 4 349 341 335 334 318 315 317 320 313 306 301 289 284 291 283 270 271
133 153 191 217 237 214 248 249 196 171 202 223 229 251 273 285 290 299 297 293 291 297 299 333 330 315 316 318 320 324 326 324 323 326 327 319 303 290 281 288 294 292 273 265
117 196 228 248 257 224 234 241 205 206 216 220 240 245 260 256 256 267 276 287 288 297 294 279 284 299 314 324 325 325 324 327 328 333 331 318 316 316 311 300 289 290 288 278
109 182 226 274 268 244 266 262 229 228 234 239 259 268 269 275 278 277 269 256 268 288 288 299 305 306 301 305 309 318 320 321 332 330 322 326 332 333 330 323 318 311 300 292
156 151 179 264 300 337 274 243 214 216 214 206 233 252 289 295 282 269 254 239 261 276 286 289 286 282 287 291 300 302 310 321 333 325 320 322 324 324 321 323 333 324 311 294
162 157 177 251 14 247 244 209 193 207 236 220 234 260 256 255 273 272 235 226 263 283 285 283 281 289 297 303 313 310 316 324 325 320 319 322 321 319 319 323 316 311 309 298
181 165 171 182 241 271 284 242 174 193 258 229 233 255 268 284 317 292 256 246 262 266 272 270 272 285 300 305 311 324 332 337 333 320 313 312 312 313 317 314 306 303 301 301
82 136 160 176 212 244 248 241 180 126 275 246 212 233 237 126 271 271 289 310 309 310 309 310 319 336 318 313 314 326 326 336 321 312 308 306 309 311 307 300 295 292 287 284
149 158 196 206 229 260 252 233 121 167 249 249 204 216 200 205 228 267 304 318 323 326 327 334 332 314 296 305 323 329 328 312 308 311 312 314 314 308 299 299 302 294 289 294
182 181 199 183 216 253 210 142 183 218 257 220 226 219 216 235 261 279 292 300 315 328 334 339 338 326 323 322 333 323 314 311 316 317 319 320 319 316 318 312 310 306 295 298
202 198 195 198 217 252 183 197 223 198 224 240 232 235 221 239 255 271 278 271 279 287 307 321 313 325 328 328 330 305 309 316 322 328 326 325 325 324 317 310 307 312 313 300
254 219 198 244 261 257 238 243 262 235 235 249 243 241 221 232 243 251 258 272 279 288 300 318 327 325 323 327 332 306 306 316 320 320 318 319 323 323 321 313 303 298 293 291
233 183 220 253 274 295 276 245 248 253 261 267 261 240 228 221 238 233 238 252 261 297 316 310 287 290 301 315 320 317 317 320 318 311 310 317 321 318 320 316 299 292 269 267
216 201 209 241 244 227 261 271 233 235 253 253 249 262 249 224 227 227 235 242 251 273 290 299 292 290 294 305 311 313 311 304 297 306 312 312 313 314 315 317 319 313 305 305
Height
1498 1502 1504 1503 1502 1503 1504 1506 1506 1504 1502 1504 1505 1504 1503 1501 1500 1499 1499 1499 1499 1499 1500 1500 1500 1501 1501 1502 1503 1504 1505 1506 1508 1509 1510 1512 1513 1515 1516 1518 1519 1520 1521 1522
1502 1504 1501 1501 1501 1502 1503 1505 1506 1505 1503 1504 1506 1504 1501 1499 1498 1497 1497 1497 1497 1497 1497 1497 1498 1498 1499 1500 1501 1502 1502 1504 1505 1507 1508 1509 1511 1512 1513 1514 1516 1517 1519 1520
1501 1502 1499 1500 1501 1502 1502 1504 1505 1506 1505 1505 1507 1504 1501 1497 1497 1496 1495 1495 1495 1495 1494 1495 1496 1496 1497 1498 1499 1500 1500 1501 1503 1504 1506 1507 1507 1509 1510 1511 1513 1514 1515 1517
1502 1500 1499 1500 1501 1501 1501 1500 1502 1504 1508 1511 1509 1510 1500 1497 1496 1494 1493 1493 1493 1493 1493 1493 1494 1494 1495 1496 1497 1498 1499 1500 1500 1502 1503 1504 1504 1505 1506 1508 1509 1511 1512 1513
1502 1500 1500 1500 1500 1500 1500 1500 1502 1503 1507 1512 1511 1513 1502 1498 1495 1492 1491 1491 1491 1491 1491 1492 1492 1493 1494 1495 1495 1496 1497 1498 1499 1500 1501 1501 1502 1503 1504 1505 1506 1508 1509 1510
1502 1500 1500 1500 1499 1500 1500 1502 1503 1507 1510 1513 1509 1512 1502 1498 1493 1490 1490 1490 1489 1490 1490 1490 1491 1492 1492 1493 1494 1495 1495 1496 1497 1497 1498 1499 1500 1500 1501 1502 1503 1504 1505 1506
1504 1502 1500 1500 1500 1500 1502 1507 1512 1512 1515 1510 1506 1508 1500 1493 1491 1490 1489 1489 1488 1488 1488 1488 1489 1489 1490 1491 1492 1493 1493 1494 1494 1495 1496 1496 1497 1498 1498 1499 1500 1501 1501 1502
1508 1506 1502 1501 1501 1503 1503 1505 1511 1513 1512 1509 1507 1504 1497 1492 1490 1489 1489 1488 1487 1487 1487 1487 1487 1488 1488 1489 1490 1490 1491 1492 1492 1493 1493 1494 1494 1495 1496 1496 1497 1498 1498 1499
1508 1506 1503 1501 1501 1502 1504 1507 1507 1513 1516 1516 1507 1503 1495 1491 1490 1489 1488 1487 1486 1486 1486 1486 1486 1487 1487 1488 1488 1489 1489 1489 1490 1490 1490 1491 1492 1492 1492 1493 1494 1494 1495 1495
1505 1509 1505 1503 1502 1502 1503 1505 1511 1512 1512 1510 1506 1504 1496 1491 1490 1489 1488 1487 1486 1486 1485 1485 1485 1485 1486 1486 1487 1487 1487 1487 1487 1488 1488 1488 1488 1489 1489 1490 1490 1491 1491 1492
1505 1510 1509 1506 1506 1505 1506 1507 1508 1511 1512 1511 1510 1500 1490 1489 1487 1487 1487 1486 1486 1485 1484 1484 1484 1484 1484 1485 1485 1485 1485 1485 1485 1485 1485 1485 1485 1486 1486 1487 1487 1487 1488 1488
1505 1510 1512 1509 1506 1505 1505 1505 1508 1509 1511 1514 1512 1501 1488 1487 1486 1486 1486 1486 1485 1484 1484 1483 1483 1483 1483 1482 1482 1483 1482 1482 1482 1482 1482 1482 1482 1483 1483 1483 1484 1484 1484 1484
1505 1511 1513 1507 1509 1509 1507 1506 1507 1508 1510 1513 1510 1499 1488 1487 1486 1485 1485 1484 1484 1483 1483 1482 1482 1481 1481 1481 1480 1480 1480 1480 1479 1479 1479 1479 1479 1479 1479 1479 1480 1480 1480 1480
1500 1508 1509 1506 1502 1505 1507 1506 1506 1507 1507 1508 1504 1494 1488 1487 1486 1484 1484 1483 1483 1482 1482 1481 1480 1479 1479 1479 1478 1478 1477 1477 1477 1476 1475 1475 1475 1475 1474 1475 1475 1475 1475 1475
1500 1506 1508 1505 1502 1503 1503 1503 1504 1504 1502 1500 1495 1493 1484 1484 1484 1483 1483 1482 1482 1481 1480 1479 1478 1478 1477 1477 1476 1475 1475 1474 1474 1473 1472 1472 1471 1471 1470 1470 1470 1470 1470 1471
1501 1505 1507 1505 1501 1501 1500 1498 1499 1499 1498 1497 1494 1489 1483 1482 1482 1481 1481 1480 1479 1478 1478 1477 1476 1476 1475 1474 1473 1473 1472 1471 1471 1470 1469 1468 1467 1467 1466 1466 1466 1466 1466 1466
1503 1505 1506 1505 1504 1500 1499 1493 1494 1494 1493 1492 1490 1484 1481 1481 1480 1479 1478 1478 1477 1476 1475 1474 1473 1473 1472 1472 1471 1470 1469 1469 1468 1467 1466 1465 1464 1463 1462 1462 1462 1461 1461 1461
1501 1504 1506 1507 1506 1502 1488 1486 1486 1488 1487 1486 1483 1480 1479 1479 1477 1476 1476 1475 1474 1474 1473 1472 1471 1470 1470 1469 1469 1468 1467 1466 1465 1464 1462 1461 1460 1460 1459 1458 1458 1457 1457 1457
1496 1500 1505 1508 1506 1497 1487 1484 1485 1487 1484 1480 1480 1478 1477 1477 1476 1474 1473 1473 1472 1472 1471 1470 1469 1468 1467 1467 1466 1465 1464 1463 1462 1460 1459 1458 1457 1456 1455 1454 1454 1453 1453 1452
1496 1498 1503 1506 1502 1495 1482 1481 1480 1483 1482 1475 1475 1475 1475 1476 1478 1473 1471 1470 1470 1469 1468 1467 1466 1465 1465 1464 1463 1462 1461 1459 1458 1457 1456 1455 1454 1453 1452 1451 1450 1450 1449 1448
1498 1500 1501 1502 1501 1488 1481 1479 1480 1485 1477 1473 1471 1472 1473 1473 1472 1471 1469 1468 1467 1466 1465 1464 1463 1463 1462 1461 1460 1459 1458 1457 1456 1455 1454 1453 1451 1450 1449 1448 1447 1446 1446 1445
1494 1498 1500 1500 1499 1488 1477 1477 1479 1474 1471 1470 1470 1470 1470 1469 1468 1468 1467 1466 1465 1463 1463 1462 1461 1460 1460 1459 1458 1456 1455 1454 1453 1452 1451 1450 1449 1447 1446 1445 1444 1443 1443 1442
1489 1487 1486 1486 1481 1474 1472 1471 1471 1470 1469 1469 1468 1468 1468 1467 1466 1465 1464 1463 1462 1462 1461 1460 1459 1458 1457 1457 1456 1454 1453 1452 1451 1449 1448 1447 1446 1445 1444 1443 1441 1440 1440 1439
1484 1482 1482 1481 1474 1471 1470 1469 1469 1468 1468 1467 1467 1466 1465 1464 1463 1463 1462 1461 1460 1459 1458 1458 1457 1455 1455 1454 1453 1452 1451 1449 1448 1447 1445 1444 1443 1442 1441 1440 1439 1438 1437 1436
1479 1480 1480 1477 1471 1468 1466 1466 1466 1466 1465 1464 1464 1463 1462 1461 1460 1460 1459 1458 1458 1457 1456 1455 1454 1453 1452 1452 1451 1450 1448 1447 1445 1444 1443 1441 1440 1439 1438 1438 1437 1435 1434 1434
1475 1475 1476 1470 1466 1467 1464 1463 1463 1463 1462 1462 1461 1460 1459 1459 1457 1457 1456 1456 1455 1454 1454 1453 1452 1451 1450 1449 1448 1447 1446 1445 1443 1441 1440 1439 1438 1437 1436 1434 1434 1433 1432 1431